STARLINK-35674, 67117

Orbit data source: Space-Track

STARLINK-35674, 67117 is a payload satellite owned by SpaceX/Seattle (US) in LEO that was launched on Mon, 15 Dec 2025 UTC via an FALCON 9 launch vehicle from the Air Force Eastern Test Range (AFETR). Payload-class satellites include a variety of spacecraft equipped with specific instruments for various scientific and technological missions. These include communications satellites like Starlink; space stations such as the ISS; scientific satellites like the Hubble; Earth observation satellites from companies like Planet Labs, Umbra, and HawkEye 360; GPS; miniature CubeSats for education and research; and military/defense satellites.

Not visible in the next 10 days
Identifier
67117, 2025-299R
Orbit
LEO
Country
Flag of USUS
Related business
Manufacturer
SpaceX/Seattle
Mission
Operational spacecraft
Bus & Motor
STARLINK V2MO, Unknown motor
Mass
575 kg wet, ~530 kg dry
Launch date (UTC)
2025-12-15 (1 week ago)
Launch vehicle
FALCON 9
Launch site
Air Force Eastern Test Range (AFETR)
Object type
Payload
Rocket body
Debris
Shape & HBR
Unknown
Radar Cross Section
RCS unknown

Expand to show TLE details & history
Last TLE update: 9 hours ago

TLE from 9 hours ago
0 STARLINK-35674
1 67117U 25299R   25355.25001157 -.01442277  61559-3 -33603-2 0  9995
2 67117  42.9995 264.7788 0002372 273.8368  66.3564 15.96196716  1973
Epoch: 2025-12-21T06:00Z
TLE epoch observation values (Epoch: 2025-12-21T06:00:00.999Z)
Latitude
-13.4786°
Longitude
69.90168°
Altitude
286.825 km
Speed
7.737 km/s
True Right ascension
16h 39m 53s
True Declination
-13° 23' 43"
Sunlit
Object was in daylight at epoch
Visualization orbit readout
Latitude
Unknown
Longitude
Unknown
Altitude
Unknown
Speed
Unknown
Apparent Right ascension
Unknown
Apparent Declination
Unknown
Sunlit
N/A
Visualization observer readout
Local Sidereal Time
13:57:22
Azimuth
Unknown
Elevation
Unknown
Doppler factor
Unknown
Orbital elements
Apogee altitude
288.566 km
Perigee altitude
285.404 km
Semi-major axis
6,665.122 km
Eccentricity
0.00024
Inclination
42.9995°
RAAN
264.7788°
Arg. of periapsis
273.8368°
True anomaly
66.3813°
Mean anomaly
66.3564°
Eccentric anomaly
66.36885°
Mean motion
3.9887 °/min
Orbital period
90.26 mins
BSTAR
-0.0033603
Loading maneuver chart data...
Computing Atmospheric mass density...
Loading historical data...
Loading historical data...
Loading historical data...
Loading historical data...
Loading historical data...
Loading historical data...
Loading historical data...

Documentation

Showing up to 5 results
|